NOZ8938 ENAL-ENAL

Flight info

Callsign NOZ8938
Flight time N/A
Altitude 6000
Route ENAL2F BEDUT
Aircraft B738/M-SDE2E3GHIJ1LRWXY/LB1

Departure

Time 2026-04-30 20:41
Airport Ålesund Airport (ENAL)

Arrival

Time N/A
Airport Ålesund Airport (ENAL)
Time Latitude Longitude Altitude Speed Heading
2026-04-30 20:16 62.55911 6.11472 79 ft 0 kts 154°
2026-04-30 20:34 62.55925 6.11459 78 ft 2 kts 154°
2026-04-30 20:34 62.55947 6.11435 78 ft 2 kts 139°
2026-04-30 20:35 62.55953 6.11419 78 ft 0 kts 112°
2026-04-30 20:35 62.55955 6.11404 78 ft 0 kts 110°
2026-04-30 20:37 62.55955 6.11415 78 ft 2 kts 80°
2026-04-30 20:37 62.55984 6.11446 77 ft 6 kts
2026-04-30 20:37 62.56028 6.11509 78 ft 9 kts 59°
2026-04-30 20:38 62.56064 6.11667 77 ft 13 kts 65°
2026-04-30 20:38 62.56107 6.11873 74 ft 17 kts 65°
2026-04-30 20:38 62.56166 6.12087 69 ft 14 kts 33°
2026-04-30 20:39 62.56313 6.12275 64 ft 14 kts 64°
2026-04-30 20:39 62.56364 6.12512 60 ft 19 kts 65°
2026-04-30 20:39 62.56425 6.12794 56 ft 19 kts 64°
2026-04-30 20:40 62.56469 6.13029 52 ft 4 kts 315°
2026-04-30 20:40 62.56464 6.12973 53 ft 3 kts 240°
2026-04-30 20:40 62.56456 6.12941 53 ft 1 kts 244°
2026-04-30 20:41 62.56451 6.12917 54 ft 8 kts 244°
2026-04-30 20:41 62.56313 6.12285 64 ft 82 kts 244°
2026-04-30 20:41 62.55973 6.10740 88 ft 140 kts 245°
2026-04-30 20:41 62.55547 6.08803 773 ft 142 kts 244°
2026-04-30 20:42 62.55138 6.06849 1534 ft 144 kts 239°
2026-04-30 20:42 62.54741 6.04910 2263 ft 146 kts 240°
2026-04-30 20:42 62.53898 6.00636 3482 ft 166 kts 240°
2026-04-30 20:43 62.53637 5.98077 4017 ft 189 kts 264°
2026-04-30 20:43 62.53986 5.95101 4377 ft 225 kts 290°
2026-04-30 20:43 62.55017 5.92241 4637 ft 262 kts 313°
2026-04-30 20:44 62.58547 5.89367 5176 ft 289 kts 355°
2026-04-30 20:44 62.60536 5.90032 5431 ft 297 kts 16°
2026-04-30 20:44 62.64134 5.94456 5936 ft 301 kts 33°
2026-04-30 20:45 62.67549 5.99724 5962 ft 303 kts 43°
2026-04-30 20:45 62.68850 6.03316 5784 ft 301 kts 63°
2026-04-30 20:45 62.69699 6.07445 5596 ft 296 kts 72°
2026-04-30 20:46 62.71827 6.19992 5004 ft 296 kts 73°
2026-04-30 20:46 62.72526 6.24147 4802 ft 290 kts 73°
2026-04-30 20:47 62.73927 6.32440 4430 ft 294 kts 73°
2026-04-30 20:47 62.74635 6.36625 4226 ft 288 kts 73°
2026-04-30 20:48 62.76009 6.44745 3957 ft 278 kts 73°
2026-04-30 20:48 62.76671 6.48620 3958 ft 264 kts 73°
2026-04-30 20:48 62.77304 6.52315 3967 ft 257 kts 73°
2026-04-30 20:48 62.77932 6.56033 3950 ft 261 kts 72°
2026-04-30 20:49 62.78530 6.59714 3965 ft 254 kts 78°
2026-04-30 20:49 62.78724 6.63474 3966 ft 247 kts 101°
2026-04-30 20:49 62.78278 6.66897 3970 ft 237 kts 125°
2026-04-30 20:50 62.75981 6.71607 3962 ft 224 kts 153°
2026-04-30 20:50 62.74657 6.73233 3959 ft 215 kts 167°
2026-04-30 20:50 62.73215 6.73618 3963 ft 209 kts 191°
2026-04-30 20:50 62.71994 6.72715 3974 ft 207 kts 212°
2026-04-30 20:51 62.70848 6.70674 3971 ft 205 kts 223°
2026-04-30 20:51 62.68693 6.66673 3967 ft 205 kts 219°
2026-04-30 20:51 62.67711 6.64417 3970 ft 205 kts 233°
2026-04-30 20:52 62.67011 6.61811 3963 ft 194 kts 240°
2026-04-30 20:52 62.66441 6.59225 3965 ft 188 kts 242°
2026-04-30 20:52 62.65359 6.54182 3966 ft 172 kts 241°
2026-04-30 20:53 62.64865 6.51874 3981 ft 165 kts 241°
2026-04-30 20:53 62.64392 6.49667 3888 ft 157 kts 241°
2026-04-30 20:53 62.63936 6.47539 3672 ft 154 kts 240°
2026-04-30 20:54 62.63048 6.43400 3250 ft 150 kts 240°
2026-04-30 20:54 62.62616 6.41386 3042 ft 147 kts 239°
2026-04-30 20:54 62.62181 6.39373 2839 ft 148 kts 239°
2026-04-30 20:55 62.61385 6.35672 2460 ft 144 kts 240°
2026-04-30 20:55 62.60632 6.32186 2089 ft 141 kts 238°